Weather History for Edinburg, TX

Change the Weather History Date:

Tuesday, February 19, 2013

  Actual Average (KMFE) Record (KMFE)
Temperature  
Mean Temperature 67 °F 65 °F  
Max Temperature 76 °F 76 °F 98 °F (1986)
Min Temperature 58 °F 55 °F 34 °F (1879)
Degree Days  
Heating Degree Days 0 3  
Month to date heating degree days 82  
Since 1 July heating degree days 509  
Cooling Degree Days 2 4  
Month to date cooling degree days 58  
Year to date cooling degree days 120  
Growing Degree Days 17 (Base 50)    
Moisture  
Dew Point 58 °F    
Average Humidity 73    
Maximum Humidity 92    
Minimum Humidity 51    
Precipitation  
Precipitation 0.00 in 0.03 in 1.11 in (1982)
Month to date precipitation 0.81  
Year to date precipitation 1.86  
Sea Level Pressure  
Sea Level Pressure 30.06 in    
Wind  
Wind Speed 8 mph (East)    
Max Wind Speed 23 mph    
Max Gust Speed 28 mph    
Visibility 5 miles    
Events      
T = Trace of Precipitation, MM = Missing Value Source: NWS Daily Summary

Daily Weather History Graph

Daily Weather History Graph

Search for Another Location

Airport:

Trip Planner

Search our weather history database for the weather conditions in past years. The results will help you decide how hot, cold, wet, or windy it might be!

Date:

Astronomy

Feb. 19, 2013 Rise Set
Actual Time 7:04 AM CST 6:28 PM CST
Civil Twilight 6:41 AM CST 6:51 PM CST
Nautical Twilight 6:14 AM CST 7:18 PM CST
Astronomical Twilight 5:47 AM CST 7:45 PM CST
Moon 1:17 PM CST (2/19) 2:21 AM CST (2/19)
Length of Visible Light 12h 10m
Length of Day
11h 23m
Waxing Gibbous, 67% of the Moon is Illuminated
Feb 19
Waxing Gibbous
Feb 25
Full
Mar 4
Last Quarter
Mar 11
New
Mar 19
First Quarter

Hourly Weather History & Observations

Time (CST) Temp. Dew Point Humidity Pressure Visibility Wind Dir Wind Speed Gust Speed Precip Events Conditions
12:15 AM 64.8 °F 59.9 °F 84% 30.00 in 7.0 mi East 3.5 mph - N/A   Clear
12:35 AM 64.8 °F 60.1 °F 85% 30.00 in 7.0 mi Calm Calm - N/A   Clear
12:55 AM 64.0 °F 59.4 °F 85% 30.00 in 5.0 mi Calm Calm - N/A   Haze
1:15 AM 63.7 °F 59.2 °F 85% 30.00 in 5.0 mi Calm Calm - N/A   Haze
1:35 AM 63.7 °F 59.4 °F 86% 30.01 in 5.0 mi Calm Calm - N/A   Haze
1:55 AM 63.0 °F 58.8 °F 86% 30.02 in 5.0 mi Calm Calm - N/A   Clear
2:15 AM 63.1 °F 59.0 °F 86% 30.02 in 5.0 mi Calm Calm - N/A   Clear
2:35 AM 62.6 °F 59.0 °F 88% 30.02 in 5.0 mi Calm Calm - N/A   Clear
2:55 AM 61.9 °F 58.3 °F 88% 30.01 in 5.0 mi Calm Calm - N/A   Clear
3:15 AM 61.3 °F 57.7 °F 88% 30.01 in 5.0 mi Calm Calm - N/A   Clear
3:35 AM 60.4 °F 56.7 °F 87% 30.02 in 5.0 mi Calm Calm - N/A   Clear
3:55 AM 60.8 °F 57.2 °F 88% 30.02 in 5.0 mi Calm Calm - N/A   Clear
4:15 AM 59.4 °F 55.6 °F 87% 30.02 in 5.0 mi Calm Calm - N/A   Clear
4:35 AM 58.8 °F 55.8 °F 90% 30.02 in 3.0 mi Calm Calm - N/A   Scattered Clouds
4:55 AM 59.0 °F 55.9 °F 90% 30.02 in 4.0 mi Calm Calm - N/A   Clear
5:15 AM 59.4 °F 56.3 °F 90% 30.02 in 4.0 mi Calm Calm - N/A   Clear
5:35 AM 59.4 °F 56.7 °F 91% 30.04 in 3.0 mi East 4.6 mph - N/A   Clear
5:55 AM 58.5 °F 55.6 °F 90% 30.04 in 2.5 mi Calm Calm - N/A   Clear
6:35 AM 59.0 °F 56.3 °F 91% 30.06 in 2.0 mi Calm Calm - N/A   Clear
6:55 AM 61.7 °F 59.4 °F 92% 30.07 in 3.0 mi NNE 9.2 mph 18.4 mph N/A   Mostly Cloudy
7:15 AM 63.7 °F 61.2 °F 91% 30.09 in 4.0 mi NNE 10.4 mph - N/A   Overcast
7:35 AM 64.4 °F 61.7 °F 91% 30.10 in 3.0 mi NNE 10.4 mph - N/A   Overcast
7:55 AM 65.3 °F 61.7 °F 88% 30.11 in 5.0 mi NE 11.5 mph - N/A   Overcast
8:15 AM 65.3 °F 59.5 °F 82% 30.12 in 5.0 mi NE 16.1 mph - N/A   Haze
8:35 AM 65.3 °F 56.3 °F 73% 30.13 in 5.0 mi NE 12.7 mph 21.9 mph N/A   Haze
8:55 AM 66.2 °F 55.4 °F 68% 30.14 in 5.0 mi NE 12.7 mph - N/A   Haze
9:15 AM 67.3 °F 55.4 °F 66% 30.15 in 5.0 mi NE 12.7 mph - N/A   Haze
9:35 AM 68.7 °F 55.4 °F 62% 30.15 in 5.0 mi NE 15.0 mph 19.6 mph N/A   Haze
9:55 AM 69.6 °F 55.4 °F 61% 30.15 in 5.0 mi ENE 16.1 mph - N/A   Haze
10:15 AM 72.0 °F 55.6 °F 56% 30.16 in 5.0 mi NE 15.0 mph 21.9 mph N/A   Haze
10:35 AM 73.8 °F 56.3 °F 54% 30.16 in 5.0 mi ENE 18.4 mph - N/A   Haze
11:15 AM 73.6 °F 55.8 °F 54% 30.17 in 5.0 mi ENE 17.3 mph 23.0 mph N/A   Haze
11:55 AM 73.4 °F 56.5 °F 55% 30.17 in 5.0 mi East 15.0 mph 20.7 mph N/A   Haze
12:35 PM 74.7 °F 57.0 °F 54% 30.14 in 5.0 mi East 18.4 mph 21.9 mph N/A   Haze
12:55 PM 75.2 °F 57.2 °F 53% 30.13 in 5.0 mi East 17.3 mph 24.2 mph N/A   Haze
1:15 PM 75.4 °F 57.2 °F 53% 30.13 in 7.0 mi East 16.1 mph 21.9 mph N/A   Scattered Clouds
1:35 PM 75.7 °F 57.6 °F 53% 30.11 in 5.0 mi East 18.4 mph 24.2 mph N/A   Haze
1:55 PM 76.8 °F 57.2 °F 51% 30.09 in 5.0 mi ENE 17.3 mph 23.0 mph N/A   Haze
2:15 PM 76.1 °F 57.4 °F 52% 30.08 in 5.0 mi East 17.3 mph 23.0 mph N/A   Haze
2:35 PM 75.6 °F 57.4 °F 53% 30.08 in 5.0 mi East 17.3 mph 25.3 mph N/A   Haze
2:55 PM 75.9 °F 57.2 °F 52% 30.07 in 5.0 mi ENE 20.7 mph 25.3 mph N/A   Haze
3:15 PM 75.4 °F 57.4 °F 53% 30.07 in 5.0 mi East 19.6 mph 24.2 mph N/A   Haze
3:35 PM 75.6 °F 57.4 °F 53% 30.06 in 7.0 mi East 16.1 mph 24.2 mph N/A   Mostly Cloudy
3:55 PM 75.2 °F 57.4 °F 54% 30.05 in 5.0 mi East 20.7 mph 24.2 mph N/A   Haze
4:35 PM 74.1 °F 57.7 °F 56% 30.04 in 5.0 mi East 19.6 mph 24.2 mph N/A   Haze
4:55 PM 73.8 °F 57.9 °F 58% 30.04 in 5.0 mi East 20.7 mph 25.3 mph N/A   Haze
5:35 PM 72.0 °F 58.8 °F 63% 30.03 in 5.0 mi East 23.0 mph 27.6 mph N/A   Haze
6:35 PM 69.8 °F 57.2 °F 64% 30.02 in 5.0 mi East 17.3 mph 24.2 mph N/A   Haze
6:55 PM 69.1 °F 57.4 °F 66% 30.03 in 7.0 mi East 16.1 mph - N/A   Clear
7:15 PM 68.7 °F 58.3 °F 69% 30.04 in 7.0 mi East 12.7 mph - N/A   Clear
7:55 PM 67.8 °F 59.4 °F 74% 30.05 in 7.0 mi East 15.0 mph - N/A   Clear
8:15 PM 67.3 °F 59.5 °F 76% 30.05 in 7.0 mi East 12.7 mph 19.6 mph N/A   Scattered Clouds
8:35 PM 67.5 °F 59.9 °F 77% 30.06 in 5.0 mi East 13.8 mph - N/A   Haze
8:55 PM 68.0 °F 60.1 °F 76% 30.07 in 7.0 mi East 12.7 mph - N/A   Mostly Cloudy
9:15 PM 68.0 °F 60.1 °F 76% 30.07 in 7.0 mi ESE 13.8 mph 20.7 mph N/A   Overcast
9:35 PM 68.0 °F 60.3 °F 76% 30.06 in 5.0 mi East 15.0 mph - N/A   Haze
9:55 PM 68.0 °F 60.3 °F 76% 30.06 in 7.0 mi East 15.0 mph - N/A   Overcast
10:15 PM 68.2 °F 60.8 °F 77% 30.05 in 7.0 mi ESE 16.1 mph - N/A   Overcast
10:35 PM 68.4 °F 60.8 °F 77% 30.04 in 7.0 mi East 16.1 mph 19.6 mph N/A   Mostly Cloudy
10:55 PM 68.4 °F 61.0 °F 77% 30.03 in 7.0 mi ESE 15.0 mph - N/A   Mostly Cloudy
11:15 PM 68.2 °F 61.2 °F 78% 30.02 in 7.0 mi ESE 15.0 mph - N/A   Overcast
11:35 PM 68.2 °F 61.5 °F 79% 30.01 in 7.0 mi ESE 15.0 mph - N/A   Mostly Cloudy
11:55 PM 68.4 °F 61.9 °F 80% 30.00 in 7.0 mi ESE 17.3 mph 20.7 mph N/A   Overcast